Weather in Arusha

Tanzania     3°22′26″S   36°40′43″E
temp.,
°C
wind,
m/s
gust,
m/s
humid.,
%
clouds,
%
prec.,
mm/h
press.,
hPa
HPBL,
m
6 december, mon
mon600:00+14ne118494 0.0 101825
03:00+13n119281 0.0 101635
06:00+13nne129299 0.0 1018144
09:00+18ne127395 0.0 1019639
12:00+22ne125466 0.1 10151583
15:00+20ene2261100 0.8 1013979
18:00+17ne1279100 0.6 101584
21:00+15ene128094 0.6 101842
7 december, tue
tue700:00+15ne118568 0.0 101837
03:00+13nne019241 0.0 101642
06:00+13wnw119277 0.0 101847
09:00+19nne126883 0.0 1018689
12:00+23ne124891 0.0 10151782
15:00+22nne125099 0.1 1013980
18:00+19e1267100 0.1 1014106
21:00+16e1272100 0.1 101732
8 december, wed
wed800:00+14ese238935 0.0 101893
03:00+14ese129473 0.0 1016187
06:00+13ese019578 0.0 101858
09:00+18nne117337 0.1 1018666
12:00+21ne115994 0.4 10161337
15:00+20nw116495 0.9 1013504
18:00+17nne128187 0.9 101465
21:00+17ese237572 0.9 101682
9 december, thu
thu900:00+14ese139239 0.0 101795
03:00+14nnw129561 0.0 1016149
06:00+14n129466 0.0 1017123
09:00+18ene117665 0.1 1018724
12:00+19ese117397 0.6 1016735
15:00+21e116484 1.9 1013822
18:00+18ene237383 2.2 1013112
21:00+15se2390100 2.6 101768
10 december, fri
fri1000:00+15ese249660 0.3 1017252
03:00+14nnw129656 0.4 101654
06:00+14n139394 0.1 1016185
09:00+17nne2381100 0.1 1017565
12:00+20nne126780 0.9 1015978
15:00+20ene126652 2.8 1012532
18:00+17e128195 1.6 101367
21:00+15nne139138 1.6 101597